TimeEST,TemperatureF,Dew PointF,Humidity,Sea Level PressureIn,VisibilityMPH,Wind Direction,Wind SpeedMPH,Gust SpeedMPH,PrecipitationIn,Events,Conditions,WindDirDegrees,DateUTC
12:53 AM,34.0,26.1,73,30.56,10.0,Calm,Calm,-,N/A,,Overcast,0,2012-11-14 05:53:00
1:53 AM,32.0,25.0,75,30.55,10.0,Calm,Calm,-,N/A,,Mostly Cloudy,0,2012-11-14 06:53:00
2:53 AM,30.9,25.0,79,30.56,10.0,Calm,Calm,-,N/A,,Mostly Cloudy,0,2012-11-14 07:53:00
3:53 AM,28.9,24.1,82,30.55,10.0,Calm,Calm,-,N/A,,Clear,0,2012-11-14 08:53:00
4:53 AM,27.0,24.1,89,30.57,9.0,Calm,Calm,-,N/A,,Clear,0,2012-11-14 09:53:00
5:53 AM,27.0,23.0,85,30.58,8.0,Calm,Calm,-,N/A,,Clear,0,2012-11-14 10:53:00
6:53 AM,26.1,21.9,84,30.59,8.0,Calm,Calm,-,N/A,,Scattered Clouds,0,2012-11-14 11:53:00
7:53 AM,27.0,23.0,85,30.60,5.0,Calm,Calm,-,N/A,,Partly Cloudy,0,2012-11-14 12:53:00
8:53 AM,33.1,28.0,82,30.60,7.0,Calm,Calm,-,N/A,,Scattered Clouds,0,2012-11-14 13:53:00
9:53 AM,37.0,24.1,59,30.60,10.0,East,9.2,-,N/A,,Overcast,80,2012-11-14 14:53:00
10:53 AM,36.0,24.1,62,30.60,10.0,East,5.8,-,N/A,,Overcast,80,2012-11-14 15:53:00
11:53 AM,37.0,24.1,59,30.56,10.0,ESE,4.6,-,N/A,,Overcast,110,2012-11-14 16:53:00
12:53 PM,37.0,24.1,59,30.54,10.0,East,5.8,-,N/A,,Mostly Cloudy,100,2012-11-14 17:53:00
1:53 PM,39.0,24.1,55,30.51,10.0,Variable,5.8,-,N/A,,Scattered Clouds,0,2012-11-14 18:53:00
2:53 PM,39.9,25.0,55,30.49,10.0,East,5.8,-,N/A,,Clear,100,2012-11-14 19:53:00
3:53 PM,39.0,24.1,55,30.49,10.0,ENE,5.8,-,N/A,,Clear,60,2012-11-14 20:53:00
4:53 PM,37.9,25.0,60,30.49,10.0,North,4.6,-,N/A,,Clear,10,2012-11-14 21:53:00
5:53 PM,36.0,25.0,64,30.48,10.0,NE,4.6,-,N/A,,Clear,50,2012-11-14 22:53:00
6:53 PM,34.0,25.0,70,30.49,10.0,NNE,3.5,-,N/A,,Clear,30,2012-11-14 23:53:00
7:53 PM,30.9,25.0,79,30.49,10.0,Calm,Calm,-,N/A,,Clear,0,2012-11-15 00:53:00
8:53 PM,33.1,24.1,70,30.45,10.0,NE,5.8,-,N/A,,Clear,50,2012-11-15 01:53:00
9:53 PM,30.0,25.0,82,30.46,10.0,Calm,Calm,-,N/A,,Clear,0,2012-11-15 02:53:00
10:53 PM,30.0,25.0,82,30.44,10.0,Calm,Calm,-,N/A,,Clear,0,2012-11-15 03:53:00
11:53 PM,28.9,25.0,85,30.43,8.0,Calm,Calm,-,N/A,,Clear,0,2012-11-15 04:53:00